Regional Weather Roundup
Issued by NWS

Home | Current Version | Previous Version | Text Only | Print | Product List | Glossary Off
Versions: 1 2 3 4 5 6 7 8 9 10 11 12 13 14 15 16 17 18 19 20 21 22 23 24 25 26 27 28 29 30 31 32 33 34 35 36 37 38 39 40 41 42 43 44 45 46 47 48 49 50

141
ASUS44 KMEG 210710
RWRTN
TENNESSEE HOURLY STATE WEATHER ROUNDUP
NATIONAL WEATHER SERVICE MEMPHIS TN
100 AM CST SAT JAN 21 2017

TNZ002-004-019-021-049-052-054-088>092-210800-
WEST TENNESSEE

CITY           SKY/WX    TMP DP  RH WIND       PRES   REMARKS
MEMPHIS INTL   CLOUDY    61  54  77 S9        29.69F
NWS MEMPHIS      N/A     61 N/A N/A MISG        N/A
JACKSON        CLOUDY    62  52  69 S7        29.72S
DYERSBURG      CLOUDY    59  52  77 CALM      29.69F
UNION CITY     CLEAR     55  55 100 S8        29.68F
PARIS          CLEAR     54  50  87 CALM      29.72S
HUNTINGDON     CLEAR     57  52  82 S5        29.71S
$$

TNZ008-025-027-028-033-062-065-066-210800-
NORTH MIDDLE TENNESSEE

CITY           SKY/WX    TMP DP  RH WIND       PRES   REMARKS
NASHVILLE      CLOUDY    57  52  83 S7        29.76S
PORTLAND       CLEAR     57  54  88 MISG      29.75S
CLARKSVILLE    PTCLDY    57  50  77 S5        29.73R
SMYRNA         PTCLDY    57  53  86 SE5       29.78S
GALLATIN       CLEAR     61  54  77 S3        29.79S
CROSSVILLE     CLOUDY    55  50  83 CALM      29.84R
$$

TNZ061-075-076-078-094-096-097-210800-
SOUTH MIDDLE TENNESSEE

CITY           SKY/WX    TMP DP  RH WIND       PRES   REMARKS
TULLAHOMA      CLEAR     57  54  88 S5        29.80S
WINCHESTER     CLEAR     57  52  82 E3        29.81S
MCMINNVILLE    CLEAR     61  54  77 S3        29.80R
COLUMBIA       CLEAR     61  61 100 S7        29.74F
SHELBYVILLE    CLEAR     61  55  82 S6        29.78F
$$

TNZ017-018-042-046-047-210800-
NORTHEAST TENNESSEE

CITY           SKY/WX    TMP DP  RH WIND       PRES   REMARKS
TRI CITIES     MOCLDY    46  45  96 CALM      29.88R
ELIZABETHTON   MOCLDY    48  46  93 CALM      29.88S
$$

TNZ012-013-036-069-073-074-210800-
CENTRAL EAST TENNESSEE

CITY           SKY/WX    TMP DP  RH WIND       PRES   REMARKS
KNOXVILLE      MOCLDY    53  49  86 CALM      29.83R
OAK RIDGE      PTCLDY    51  48  89 CALM      29.85R
GATLINBURG     CLEAR     46  45  93 CALM      29.84R
MORRISTOWN     CLOUDY    52  50  93 CALM      29.84S
JACKSBORO      PTCLDY    46  46 100 CALM      29.86F
$$

TNZ083-085-099-210800-
SOUTHEAST TENNESSEE

CITY           SKY/WX    TMP DP  RH WIND       PRES   REMARKS
CHATTANOOGA    MOCLDY    53  50  89 CALM      29.83F
$$

SKY/WX REPORTED AS FAIR MEANS FEW OR NO CLOUDS BELOW
12 THOUSAND FEET.





USA.gov is the U.S. government's official web portal to all federal, state and local government web resources and services.